Погода в Литятине

Украина / Тернопольская область     49°23′03″N   25°03′12″E
темп.,
°C
ветер,
м/с
пор.,
м/с
влажн.,
%
обл.,
%
осадки,
мм/ч
давл.,
гПа
погр.,
м
20 апреля, вт
вт2000:00+6в368763 0.2 1014151
03:00+4в22935 0.2 101430
06:00+4св129493 0.3 101315
09:00+7св228124 0.4 1014295
12:00+11св445758 0.9 10121581
15:00+11с3455100 1.2 10111528
18:00+11с3463100 0.4 10111084
21:00+7ссв2279100 0.7 101211
21 апреля, ср
ср2100:00+6зсз228799 0.3 101213
03:00+5зсз228953 0.6 101216
06:00+4зсз2290100 0.0 101322
09:00+8з468298 0.0 1013303
12:00+12зсз566470 1.1 10131325
15:00+14зсз575099 2.3 10122302
18:00+12з576593 0.8 10121185
21:00+8з41085100 1.6 1014268
22 апреля, чт
чт2200:00+7зюз412875 0.0 1014260
03:00+5ююз378785 0.0 1014129
06:00+6ююз398996 0.0 1014169
09:00+9зюз398695 0.2 1015454
12:00+11зюз6976100 0.8 10151332
15:00+12зюз5873100 3.1 1014898
18:00+12юз71267100 0.9 1012889
21:00+5сз5994100 3.8 1016538
23 апреля, пт
пт2300:00+4сз4894100 0.6 1018388
03:00+4з4892100 0.6 1018417
06:00+2з4795100 0.0 1019368
09:00+4зсз697584 0.0 1020825
12:00+6зсз785560 0.1 10201714
15:00+8зсз71044100 0.1 10192468
18:00+8зсз5952100 0.0 10191738
21:00+5зюз3770100 0.0 1019198
24 апреля, сб
сб2400:00+3зсз61193100 2.6 1021874
03:00+1зсз612895 2.7 1022758
06:00−1з5129518 0.0 1023404
09:00+2зсз69805 0.0 1023706
12:00+6зсз795399 0.1 10231891
15:00+8зсз7944100 0.1 10212226
18:00+8зсз5105310 0.0 10202002
21:00+5зюз3368100 0.0 102054